Regional Weather Roundup
Issued by NWS

Home | Current Version | Previous Version | Text Only | Print | Product List | Glossary On
Versions: 1 2 3 4 5 6 7 8 9 10 11 12 13 14 15 16 17 18 19 20 21 22 23 24 25 26 27 28 29 30 31 32 33 34 35 36 37 38 39 40 41 42 43 44 45 46 47 48 49 50
000
ASUS45 KBOI 272010
RWRID

IDAHO REGIONAL WEATHER ROUNDUP
NATIONAL WEATHER SERVICE BOISE ID
200 PM MDT WED MAY 27 2015

NOTE: "FAIR" INDICATES FEW OR NO CLOUDS BELOW 12000 FEET
WITH NO SIGNIFICANT WEATHER AND/OR OBSTRUCTIONS TO VISIBILITY

IDZ012-014-272100-
SOUTHWEST IDAHO


CITY           SKY/WX    TMP DP  RH WIND       PRES   REMARKS
BOISE          MOSUNNY   71  45  39 CALM      29.97F
CALDWELL       MOSUNNY   73  45  35 N3        29.98F
MOUNTAIN HOME  PTSUNNY   74  40  29 NW10G16   29.96F
$$

IDZ016-017-272100-
SOUTHCENTRAL IDAHO


CITY           SKY/WX    TMP DP  RH WIND       PRES   REMARKS
BURLEY         MOSUNNY   68  46  45 VRB6      30.00F
JEROME           N/A     69  43  38 SW8       30.00F
TWIN FALLS     MOSUNNY   71  44  37 VRB6      29.98F
$$

IDZ019>023-272100-
SOUTHEAST IDAHO


CITY           SKY/WX    TMP DP  RH WIND       PRES   REMARKS
IDAHO FALLS    CLOUDY    61  48  62 S12       30.04F
POCATELLO      PTSUNNY   65  47  52 SW10      30.03F
REXBURG        CLOUDY    59  45  59 S17G26    30.04F
$$

IDZ006-010-011-018-031-032-272100-
CENTRAL IDAHO MOUNTAINS


CITY           SKY/WX    TMP DP  RH WIND       PRES   REMARKS
MCCALL         CLOUDY    54  41  61 NW7       30.05S
HAILEY         PTSUNNY   59  41  51 CALM      30.06F THUNDER
STANLEY          N/A     56  34  43 VRB6      30.07S
SALMON         PTSUNNY   57  45  62 N9        30.02S
CHALLIS        LGT RAIN  60  35  39 MISG      30.00S
$$

IDZ002-004-006-007-026-272100-
NORTHERN IDAHO


CITY           SKY/WX    TMP DP  RH WIND       PRES   REMARKS
LEWISTON       PTSUNNY   71  49  45 S15       29.98F
LOWELL           N/A     65  53  65 CALM      29.99S
COEUR D`ALENE  SUNNY     72  46  40 SW3       29.98F
MULLAN PASS    LGT RAIN  49  39  68 CALM      30.09S
$$


USA.gov is the U.S. government's official web portal to all federal, state and local government web resources and services.